• Join FlightAware (Why Join?)
  • Login
  • US Flag 
09:47AM EDT


 

Airport Tracker/Info


-or-


 

Live Flight TrackerFlight Track Log ✈ UAL690 ✈ 19-Apr-2013 ✈ KSJC - KDEN

Flight Track Log - Related Links

Times and Time Zones

All times are in EDT time to prevent confusion due to time zone crossing. See the UAL690 flight status page for this flight to view local times or setup timezone preferences in your user account.

Time Position Orientation Groundspeed Altitude Reporting Facility
EDT Latitude Longitude Course Direction KTS MPH feet Rate Location/Type
10:25AM 37.4000 -121.9667 67° East 195 224 1,600  Level Northern Cal TRACON
10:26AM 37.4500 -121.9667 360° North 234 269 4,300 1,860 Climbing Northern Cal TRACON
10:27AM 37.4167 -121.9000 122° Southeast 252 290 5,200 1,980 Climbing Northern Cal TRACON
10:28AM 37.6776 -121.9722 354° North  Level FlightAware Approximate
10:28AM 37.3667 -121.8333 133° Southeast 254 292 8,300  Level Northern Cal TRACON
10:29AM 37.7898 -121.9833 North  Level FlightAware Approximate
10:29AM 37.3300 -121.8331 180° South 261 300 9,500  Level Oakland Center
10:30AM 37.8252 -121.8577 76° East  Level FlightAware Approximate
10:30AM 37.3183 -121.9058 259° West 277 319 11,900  Level Oakland Center
10:31AM 37.8642 -121.7242 67° East  Level FlightAware Approximate
10:31AM 37.4133 -121.9450 342° North 316 364 13,400  Level Oakland Center
10:32AM 37.5069 -121.9142 15° North 373 429 15,700 2,160 Climbing Oakland Center
10:33AM 37.5775 -121.8069 50° Northeast 401 461 17,800 2,100 Climbing Oakland Center
10:34AM 37.6469 -121.6933 52° Northeast 410 472 20,100 2,040 Climbing Oakland Center
10:35AM 37.7194 -121.5742 52° Northeast 425 489 22,100 1,860 Climbing Oakland Center
10:36AM 37.7919 -121.4606 51° Northeast 437 503 23,900 1,860 Climbing Oakland Center
10:37AM 37.8847 -121.3106 52° Northeast 449 517 25,900 1,740 Climbing Oakland Center
10:38AM 37.9636 -121.1822 52° Northeast 461 531 27,500 1,440 Climbing Oakland Center
10:39AM 38.0439 -121.0506 52° Northeast 471 542 28,900 1,560 Climbing Oakland Center
10:40AM 38.1000 -120.8981 65° Northeast 484 557 30,700 1,680 Climbing Oakland Center
10:41AM 38.1383 -120.7369 73° East 481 554 32,400 1,560 Climbing Oakland Center
10:42AM 38.1764 -120.5764 73° East 477 549 33,900 1,260 Climbing Oakland Center
10:43AM 38.2158 -120.4172 72° East 475 547 35,000 480 Climbing Oakland Center
10:44AM 38.2528 -120.2594 73° East 471 542 35,000  Level Oakland Center
10:45AM 38.2897 -120.0986 74° East 473 544 35,000  Level Oakland Center
10:46AM 38.3292 -119.9381 73° East 476 548 35,000  Level Oakland Center
10:47AM 38.3742 -119.7414 74° East 482 555 35,000  Level Oakland Center
10:48AM 38.4111 -119.5792 74° East 479 551 35,000  Level Oakland Center
10:49AM 38.4422 -119.4394 74° East 478 550 35,000  Level Oakland Center
10:50AM 38.4867 -119.2467 74° East 474 545 35,000  Level Oakland Center
10:51AM 38.5128 -119.0828 78° East 474 545 35,000  Level Oakland Center
10:52AM 38.5292 -118.9133 83° East 482 555 35,000  Level Oakland Center
10:53AM 38.5464 -118.7472 82° East 477 549 35,000  Level Oakland Center
10:54AM 38.5619 -118.5806 83° East 476 548 35,000  Level Oakland Center
10:55AM 38.5783 -118.4128 83° East 479 551 35,000  Level Oakland Center
10:56AM 38.5936 -118.2453 83° East 477 549 35,000  Level Oakland Center
10:57AM 38.6089 -118.0825 83° East 477 549 35,000  Level Oakland Center
10:58AM 38.6272 -117.8781 83° East 480 552 35,000  Level Oakland Center
10:59AM 38.6425 -117.7069 83° East 481 554 35,000  Level Oakland Center
11:00AM 38.6567 -117.5347 84° East 483 556 35,000  Level Oakland Center
11:02AM 38.6828 -117.2622 83° East 478 550 35,000  Level Salt Lake Center
11:03AM 38.7089 -117.0933 79° East 479 551 35,000  Level Salt Lake Center
11:03AM 38.7192 -117.0281 79° East 478 550 35,000  Level Oakland Center
11:04AM 38.7433 -116.8608 79° East 476 548 35,000  Level Oakland Center
11:05AM 38.7583 -116.7586 79° East 478 550 35,000  Level Salt Lake Center
11:06AM 38.7872 -116.5589 79° East 475 547 35,000  Level Salt Lake Center
11:07AM 38.7933 -116.5261 77° East 475 547 35,000  Level Oakland Center
11:08AM 38.8175 -116.3581 79° East 477 549 35,000  Level Oakland Center
11:08AM 38.8344 -116.2242 81° East 474 545 35,000  Level Salt Lake Center
11:09AM 38.8586 -116.0575 79° East 475 547 35,000  Level Salt Lake Center
11:10AM 38.8817 -115.8897 80° East 476 548 35,000  Level Salt Lake Center
11:11AM 38.9061 -115.7217 79° East 477 549 35,000  Level Salt Lake Center
11:12AM 38.9286 -115.5536 80° East 477 549 35,000  Level Salt Lake Center
11:13AM 38.9544 -115.3653 80° East 477 549 35,000  Level Salt Lake Center
11:15AM 38.9778 -115.1964 80° East 480 552 35,000  Level Salt Lake Center
11:16AM 39.0006 -115.0286 80° East 478 550 35,000  Level Salt Lake Center
11:17AM 39.0225 -114.8600 80° East 479 551 35,000  Level Salt Lake Center
11:18AM 39.0436 -114.6919 81° East 478 550 35,000  Level Salt Lake Center
11:19AM 39.0708 -114.4889 80° East 480 552 35,000  Level Salt Lake Center
11:20AM 39.0917 -114.3172 81° East 484 557 35,000  Level Salt Lake Center
11:21AM 39.1136 -114.1467 81° East 485 558 35,000  Level Salt Lake Center
11:22AM 39.1333 -113.9750 82° East 485 558 35,000  Level Salt Lake Center
11:23AM 39.1542 -113.8042 81° East 483 556 35,000  Level Salt Lake Center
11:24AM 39.1758 -113.6336 81° East 483 556 35,000  Level Salt Lake Center
11:25AM 39.1947 -113.4622 82° East 482 555 35,000  Level Salt Lake Center
11:26AM 39.2197 -113.2561 81° East 484 557 35,000  Level Salt Lake Center
11:27AM 39.2389 -113.0856 82° East 482 555 35,000  Level Salt Lake Center
11:28AM 39.2578 -112.9144 82° East 482 555 35,000  Level Salt Lake Center
11:29AM 39.2769 -112.7464 82° East 477 549 35,000  Level Salt Lake Center
11:30AM 39.2983 -112.5581 82° East 475 547 35,000  Level Salt Lake Center
11:31AM 39.3239 -112.3922 79° East 474 545 35,000  Level Salt Lake Center
11:32AM 39.3556 -112.2325 76° East 464 534 35,000  Level Salt Lake Center
11:33AM 39.3858 -112.0703 76° East 466 536 35,000  Level Salt Lake Center
11:34AM 39.4150 -111.9067 77° East 469 540 35,000  Level Salt Lake Center
11:35AM 39.4450 -111.7447 76° East 467 537 35,000  Level Salt Lake Center
11:36AM 39.4803 -111.5467 77° East 471 542 35,000  Level Salt Lake Center
11:37AM 39.5100 -111.3817 77° East 473 544 35,000  Level Salt Lake Center
11:38AM 39.5411 -111.2100 77° East 472 543 35,000  Level Salt Lake Center
11:39AM 39.5683 -111.0514 77° East 471 542 35,000  Level Salt Lake Center
11:40AM 39.6000 -110.8642 78° East 475 547 35,000  Level Salt Lake Center
11:41AM 39.6289 -110.7061 77° East 472 543 35,000  Level Salt Lake Center
11:42AM 39.6592 -110.5178 78° East 478 550 35,000  Level Salt Lake Center
11:43AM 39.6872 -110.3553 77° East 481 554 35,000  Level Salt Lake Center
11:44AM 39.7139 -110.1917 78° East 484 557 35,000  Level Salt Lake Center
11:45AM 39.7458 -110.0011 78° East 485 558 35,000  Level Salt Lake Center
11:46AM 39.7719 -109.8383 78° East 483 556 35,000  Level Salt Lake Center
11:47AM 39.8028 -109.6472 78° East 483 556 35,000  Level Salt Lake Center
11:48AM 39.8106 -109.5908 80° East 484 557 35,000  Level Denver Center
11:49AM 39.8375 -109.4272 78° East 481 554 35,000  Level Denver Center
11:50AM 39.8594 -109.2914 78° East 483 556 35,000  Level Salt Lake Center
11:51AM 39.8864 -109.1267 78° East 483 556 35,000  Level Salt Lake Center
11:52AM 39.9122 -108.9603 79° East 486 559 35,000  Level Salt Lake Center
11:53AM 39.9425 -108.7664 78° East 484 557 35,000  Level Salt Lake Center
11:53AM 39.9506 -108.7103 79° East 484 557 35,000  Level Denver Center
11:54AM 39.9753 -108.5433 79° East 484 557 35,000  Level Denver Center
11:55AM 40.0044 -108.3503 79° East 484 557 35,000  Level Denver Center
11:56AM 40.0286 -108.1844 79° East 484 557 35,000  Level Denver Center
11:57AM 40.0578 -107.9933 79° East 481 554 35,000  Level Denver Center
11:58AM 40.0811 -107.8258 80° East 487 560 35,000  Level Denver Center
11:59AM 40.1047 -107.6314 81° East 486 559 35,000  Level Denver Center
12:00PM 40.1250 -107.4636 81° East 486 559 35,000  Level Denver Center
12:01PM 40.1489 -107.2664 81° East 493 567 35,000  Level Denver Center
12:02PM 40.1689 -107.1006 81° East 485 558 35,000 -540 Level Denver Center
12:03PM 40.1892 -106.9350 81° East 482 555 34,000 -1,140 Descending Denver Center
12:04PM 40.2114 -106.7397 81° East 484 557 32,700 -1,140 Descending Denver Center
12:05PM 40.2325 -106.5625 81° East 488 562 31,700 -840 Descending Denver Center
12:06PM 40.2550 -106.3753 81° East 489 563 31,000 -900 Descending Denver Center
12:07PM 40.2728 -106.2050 82° East 492 566 29,900 -1,920 Descending Denver Center
12:09PM 40.2865 -106.0405 84° East  Level FlightAware Approximate
12:09PM 40.2922 -106.0122 84° East 487 560 27,100  Level Denver Center
12:10PM 40.3103 -105.8453 82° East 458 527 24,700 -2,340 Descending Denver Center
12:11PM 40.3283 -105.6786 82° East 456 525 22,300 -1,740 Descending Denver Center
12:12PM 40.3447 -105.5242 82° East 430 495 21,100 -1,440 Descending Denver Center
12:13PM 40.3189 -105.3778 103° East 382 440 19,400 -1,320 Descending Denver Center
12:14PM 40.2531 -105.2736 130° Southeast 370 426 18,400 -1,260 Descending Denver Center
12:16PM 40.1203 -105.0667 130° Southeast 354 407 15,400 -1,200 Descending Denver Center
12:17PM 40.0439 -104.9486 130° Southeast 346 398 14,500 -1,440 Descending Denver Center
12:18PM 39.9794 -104.8486 130° Southeast 335 386 12,500 -1,560 Descending Denver Center
12:19PM 39.9042 -104.8039 155° Southeast 314 361 11,300 -780 Descending Denver Center
12:20PM 39.8158 -104.8067 181° South 302 348 11,000 -540 Descending Denver Center
12:21PM 39.7478 -104.8081 181° South 245 282 10,200 -1,020 Descending Denver Center
12:22PM 39.6761 -104.8103 181° South 241 277 9,000 -600 Descending Denver Center
12:23PM 39.6253 -104.7686 148° Southeast 251 289 9,000  Level Denver Center
12:24PM 39.6539 -104.6936 64° Northeast 230 265 9,000 -120 Level Denver Center
12:25PM 39.7114 -104.6889 North 208 239 8,800 -660 Descending Denver Center
12:26PM 39.7583 -104.6883 North 200 230 7,700 -1,140 Descending Denver Center